Home   Weather   Belfast   Past weeks

Flag for United Kingdom Past Weather in Belfast, Northern Ireland, United Kingdom — Yesterday and Last 2 Weeks

Now
52 °F

Light rain. Broken clouds.


Feels Like: 48 °F
Forecast: 45 / 56 °F
Wind: 12 mph from South

Location: Belfast / Harbour

Current Time: Dec 6, 2016 at 12:09:51 pm

Latest Report: Dec 6, 2016 at 11:50 am


Visibility: 4 mi

Pressure: 30.09 "Hg

Humidity: 94%

Dew Point: 50 °F

Location of BelfastLocation

Past Weather in Belfast — Graph

°F

Belfast Temperature Yesterday

Maximum temperature yesterday: 46 °F (at 2:20 pm)
Minimum temperature yesterday: 37 °F (at 6:20 am)
Average temperature yesterday: 44 °F

High & Low Weather Summary for the Past Weeks

 TemperatureHumidityPressure
High52 °F (Dec 6, 7:50 am)100% (Nov 23, 8:20 am)30.54 "Hg (Nov 23, 8:20 am)
Low27 °F (Nov 24, 6:20 am)58% (Nov 29, 12:20 pm)29.45 "Hg (Nov 21, 6:20 pm)
Average43 °F82%30.26 "Hg
* Reported Nov 21 10:20 am — Dec 6 10:50 am, Belfast, Weather by CustomWeather, © 2016

Note: Actual official high and low records may vary slightly from our data, if they occured in-between our weather recording intervals... More about our weather records

Advertising

Belfast Weather History for the Previous 24 Hours

Scroll right to see more
 ConditionsComfort  
Time TempWeatherWind HumidityBarometerVisibility
10:50 am
Tue, Dec 6
52 °FDrizzle. Broken clouds.13 mph94%30.12 "Hg5 mi
10:20 am52 °FDrizzle. Broken clouds.8 mph94%30.12 "Hg5 mi
9:50 am52 °FDrizzle. Broken clouds.9 mph94%30.12 "Hg5 mi
9:20 am52 °FDrizzle. Broken clouds.10 mph88%30.12 "Hg4 mi
8:50 am52 °FDrizzle. Broken clouds.12 mph94%30.12 "Hg4 mi
8:20 am52 °FScattered showers. Partly cloudy.9 mph94%30.12 "Hg4 mi
7:50 am52 °FScattered showers. Partly cloudy.7 mph94%30.12 "HgN/A
7:20 am50 °FPartly cloudy.6 mph94%30.12 "Hg5 mi
6:50 am48 °FPartly cloudy.5 mph100%30.12 "Hg5 mi
6:20 am48 °FPartly cloudy.2 mph94%30.15 "Hg6 mi
8:50 pm
Mon, Dec 5
46 °FPassing clouds.6 mph87%30.18 "Hg5 mi
8:20 pm46 °FPassing clouds.6 mph87%30.18 "Hg5 mi
7:50 pm46 °FPassing clouds.7 mph87%30.18 "Hg5 mi
7:20 pm46 °FPassing clouds.6 mph87%30.18 "Hg5 mi
6:50 pm46 °FPassing clouds.7 mph87%30.15 "HgN/A
6:20 pm46 °FPartly cloudy.6 mph82%30.15 "HgN/A
5:50 pm46 °FPassing clouds.6 mph82%30.18 "HgN/A
5:20 pm45 °FPassing clouds.5 mph87%30.18 "HgN/A
4:50 pm45 °FPassing clouds.2 mph87%30.18 "HgN/A
4:20 pm45 °FPartly cloudy.No wind87%30.18 "HgN/A
3:50 pm45 °FPartly sunny.2 mph87%30.18 "HgN/A
3:20 pm45 °FPartly sunny.2 mph87%30.18 "HgN/A
2:50 pm46 °FBroken clouds.2 mph82%30.18 "HgN/A
2:20 pm46 °FBroken clouds.No wind82%30.18 "HgN/A
1:50 pm45 °FBroken clouds.5 mph87%30.18 "HgN/A
1:20 pm45 °FBroken clouds.2 mph81%30.18 "HgN/A
12:50 pm45 °FBroken clouds.5 mph81%30.18 "HgN/A
12:20 pm45 °FPartly sunny.6 mph81%30.18 "HgN/A
Weather by CustomWeather, © 2016

See weather overviewHow to use our weather pages